Wind_Speed
15 16 15 15 16 18 20 20 17 18 17 16 15 17 19 17 17 15 14 17 16 15 16 18 18 18 18 20 20 18 17 16 15 16 17 19 19 18 16 16 17 16 15
14 17 16 17 16 17 19 19 18 18 17 15 14 15 17 16 15 15 15 16 15 15 15 16 16 15 17 18 18 18 16 15 15 15 16 18 18 18 18 18 16 16 15
15 17 18 18 18 18 18 19 17 16 17 15 14 13 15 15 14 14 13 13 13 13 15 15 15 14 13 14 15 16 15 15 15 14 15 17 16 16 16 16 16 16 15
17 18 20 19 18 19 18 19 17 15 15 15 14 12 13 13 12 10 11 13 12 13 14 14 14 14 13 13 14 14 14 14 15 14 12 13 14 14 13 13 13 13 13
20 18 20 20 17 17 16 17 16 14 13 13 12 11 11 11 9 10 8 10 10 10 11 12 13 12 11 12 11 13 13 13 14 14 13 11 10 10 10 11 12 13 13
16 18 21 20 16 17 16 15 15 13 11 10 9 9 9 8 7 8 7 7 7 9 9 10 10 7 9 9 10 11 12 12 13 14 13 12 11 8 7 9 11 11 12
16 22 21 20 17 16 16 16 15 13 10 8 7 6 6 6 7 7 6 6 5 4 5 8 10 8 7 9 10 11 10 11 13 6 12 12 12 10 7 7 8 9 9
11 18 23 22 19 17 16 16 15 13 10 8 5 5 5 6 7 8 7 6 5 3 3 6 7 8 6 6 9 9 9 9 9 6 14 12 13 11 9 8 8 7 5
15 23 22 22 20 19 17 16 15 14 11 8 5 5 4 6 6 8 7 5 3 3 2 3 6 6 8 8 8 8 9 8 8 7 10 9 12 11 11 9 7 7 5
14 20 20 21 19 20 19 17 15 13 10 6 6 5 3 6 10 11 10 10 9 4 4 1 4 8 8 9 9 10 8 10 9 8 6 8 10 11 11 9 8 8 6
13 20 24 20 24 23 20 18 14 12 9 7 6 4 6 7 9 11 7 11 17 9 10 7 5 4 8 10 7 7 7 6 3 6 6 6 8 8 9 9 7 7 7
16 28 24 25 24 22 21 19 15 11 9 7 5 5 5 4 9 14 15 8 11 10 12 7 9 7 6 8 7 10 8 4 2 3 4 6 8 7 8 8 7 6 6
22 30 28 25 20 22 19 17 13 9 8 6 5 6 5 5 6 8 10 17 9 0 6 12 10 8 7 7 7 5 3 3 3 4 6 6 7 5 6 6 6 6 5
28 28 27 26 25 21 18 14 11 8 6 6 5 6 6 6 8 12 14 18 12 14 17 14 9 7 8 7 7 5 1 2 3 3 8 9 9 2 4 5 5 6 5
29 25 25 21 20 19 14 12 9 6 5 5 5 6 6 7 10 12 12 19 15 16 10 10 8 9 7 8 9 8 5 4 2 2 5 9 2 6 5 5 5 4 5
26 27 22 20 17 15 12 10 7 5 5 4 4 6 5 6 8 10 14 19 16 14 11 9 9 9 8 8 9 11 8 5 3 1 3 7 5 7 8 9 9 7 5
28 24 21 18 15 12 11 8 7 4 4 3 5 5 6 5 6 6 14 15 13 13 12 10 8 7 8 10 11 11 9 8 6 2 3 6 6 8 12 14 16 11 7
24 15 12 13 10 8 7 5 5 3 2 3 4 2 6 3 3 5 6 10 10 10 9 8 7 7 8 9 9 8 8 8 9 7 4 3 6 7 12 14 7 4 4
18 14 10 7 5 4 5 3 3 1 2 3 4 3 5 2 2 3 4 6 7 7 7 6 5 5 7 8 10 9 10 10 10 8 5 6 8 9 9 9 8 1 4
12 11 9 6 3 3 3 2 1 1 2 4 4 4 4 2 1 2 1 2 4 5 5 3 5 6 8 7 10 12 12 14 13 12 10 9 9 10 9 11 9 8 4
14 16 4 5 3 3 3 1 1 0 3 5 6 7 6 3 2 2 2 2 3 4 4 2 4 5 5 7 9 11 12 13 13 12 11 10 8 7 8 9 9 8 6
7 7 4 5 3 2 2 1 1 1 3 6 6 6 7 4 3 3 3 2 3 3 3 3 3 4 3 6 9 9 10 11 11 11 12 12 11 9 6 7 7 8 8
5 5 5 5 4 3 3 2 1 1 3 6 6 7 6 6 6 3 3 3 4 4 4 4 3 2 1 4 8 9 9 12 14 15 14 14 13 11 11 9 6 6 6
5 4 4 5 3 2 3 4 3 3 4 5 5 7 8 7 7 4 3 5 2 2 2 4 6 2 2 2 5 6 9 11 11 6 16 16 18 17 13 10 10 9 8
8 6 5 5 4 3 2 3 4 4 5 6 6 6 7 7 8 7 7 6 4 4 2 4 7 4 1 1 2 3 5 4 7 8 9 16 20 23 16 11 11 10 10
9 8 5 3 2 2 3 3 5 6 8 6 7 8 9 9 9 8 7 7 8 8 6 6 5 3 2 2 2 1 2 1 6 8 14 20 22 12 10 6 6 8 11
Wind_Direction
125 120 120 128 121 115 111 104 97 94 86 84 80 75 75 73 74 71 63 64 62 56 60 60 60 70 67 66 65 65 70 73 83 85 82 89 92 95 99 104 106 104 100
130 125 122 131 127 120 116 113 111 104 96 93 83 78 76 69 62 67 65 70 68 61 66 66 62 77 69 72 67 68 72 76 81 88 92 96 95 97 101 102 106 101 90
139 133 129 137 133 127 124 114 112 108 101 97 90 82 75 68 62 56 59 61 67 69 68 73 67 71 77 78 74 74 71 75 78 80 90 97 100 104 105 105 104 96 89
153 142 138 143 140 134 129 117 115 112 104 101 94 81 74 68 67 63 61 62 62 70 66 71 71 74 72 86 82 79 78 78 80 82 86 98 103 108 107 105 107 99 83
150 144 142 143 142 136 130 120 115 112 104 101 90 79 75 70 69 69 64 65 60 63 68 78 66 68 75 70 79 84 80 80 80 78 84 88 95 106 109 104 100 97 84
157 152 142 141 144 138 131 124 120 112 104 100 92 83 76 70 60 60 59 68 60 60 64 73 63 71 82 74 70 77 83 78 79 79 74 79 85 89 103 108 110 102 83
206 163 148 145 149 142 137 133 127 124 114 111 94 86 75 60 41 43 38 44 51 41 52 56 58 85 85 78 78 70 76 82 78 99 82 81 77 79 83 102 115 121 96
196 173 153 150 147 145 145 144 137 132 130 121 113 91 57 53 39 32 23 22 28 8 22 46 41 64 80 91 69 65 76 79 90 111 117 80 84 84 86 94 104 127 115
148 147 156 149 149 150 153 149 143 139 141 129 116 85 51 36 24 18 6 1 343 353 352 42 57 65 72 100 95 78 61 104 88 88 77 97 89 86 86 91 112 117 120
146 163 150 144 149 153 151 148 147 142 137 132 118 80 57 26 10 1 352 327 302 250 255 226 83 88 65 97 88 81 76 98 96 103 99 101 92 83 82 92 100 126 130
161 167 154 157 157 155 157 147 150 146 136 133 111 114 75 41 24 11 357 348 351 233 214 196 136 150 94 95 102 77 110 108 92 109 121 121 105 99 95 89 97 106 140
152 149 158 158 159 156 154 150 153 143 131 128 107 87 62 33 24 353 5 6 324 345 215 149 114 112 111 95 94 99 114 108 119 175 139 120 118 115 103 104 104 109 133
152 155 155 159 168 158 157 149 141 128 125 110 80 61 45 13 8 349 26 32 344 227 83 158 127 96 93 88 74 82 120 100 141 179 181 154 123 122 130 120 114 108 115
157 153 154 169 164 162 158 153 136 125 119 101 76 49 22 2 355 354 28 55 60 71 91 117 97 83 74 72 48 25 57 165 161 183 202 210 207 198 174 165 149 133 104
152 154 157 165 166 163 156 155 140 128 111 84 66 38 4 7 354 1 35 71 72 78 74 90 79 87 74 56 35 34 51 69 83 108 205 189 236 194 216 195 189 160 134
151 150 161 163 167 163 155 156 129 113 100 79 43 24 5 8 10 9 40 42 70 70 71 59 74 65 62 49 40 36 39 37 40 61 155 180 205 225 239 245 210 178 153
150 157 163 170 170 159 152 149 120 119 101 76 29 27 14 13 21 35 48 49 58 70 64 69 70 66 45 45 34 36 53 56 53 53 246 261 269 262 241 255 255 186 147
135 159 163 160 165 157 147 143 113 131 106 64 22 21 11 354 20 45 86 66 62 59 65 68 62 47 47 19 27 42 48 39 47 62 28 325 296 311 294 309 79 156 117
155 158 154 151 150 147 137 118 133 143 94 40 358 354 10 320 24 33 63 75 73 64 55 59 40 30 12 28 53 48 36 30 25 25 7 349 340 347 345 342 2 122 59
140 143 155 144 136 110 88 52 352 44 49 28 358 343 355 329 352 17 2 62 80 74 72 45 8 0 19 60 49 44 41 46 47 34 16 357 350 347 346 347 0 352 268
139 145 151 137 124 100 92 87 98 6 9 5 352 350 345 340 317 342 342 356 53 68 57 41 358 352 34 48 52 67 61 48 42 38 36 37 29 357 343 339 342 345 329
158 173 140 116 97 88 98 137 158 196 338 0 356 345 339 343 335 322 346 16 37 55 35 5 1 347 49 53 47 61 42 49 44 42 31 21 18 16 0 341 335 327 320
166 144 129 111 102 96 136 173 188 265 333 357 353 341 332 339 331 344 10 10 23 47 43 20 340 352 13 51 51 53 43 47 39 41 45 43 37 22 6 352 339 316 299
182 173 149 141 141 129 159 186 200 251 314 341 356 342 329 339 324 320 332 332 2 35 12 350 357 6 44 41 71 61 52 46 53 289 50 38 31 22 13 354 336 320 302
178 180 177 170 166 171 184 220 251 281 302 326 342 335 323 324 324 318 327 328 318 355 350 353 6 14 97 66 98 61 43 22 10 27 5 9 2 353 343 347 345 318 298
178 178 184 187 196 242 255 271 273 286 295 315 321 329 316 311 316 317 305 320 325 333 351 352 352 5 190 151 151 139 19 337 333 352 349 352 358 327 326 335 342 306 309
Height
5913 5915 5917 5918 5918 5917 5917 5918 5920 5920 5921 5922 5922 5920 5918 5917 5916 5915 5914 5912 5912 5911 5910 5908 5908 5908 5908 5907 5907 5906 5904 5903 5902 5901 5902 5902 5902 5903 5904 5904 5905 5907 5908
5914 5915 5918 5919 5920 5920 5920 5920 5920 5921 5923 5924 5924 5922 5920 5919 5919 5918 5917 5915 5915 5914 5913 5911 5911 5911 5910 5910 5910 5909 5908 5907 5906 5906 5906 5906 5906 5907 5907 5908 5909 5909 5911
5916 5917 5919 5921 5922 5922 5924 5923 5924 5924 5924 5925 5925 5925 5922 5922 5921 5920 5919 5917 5916 5916 5915 5914 5913 5913 5913 5913 5913 5912 5912 5911 5910 5910 5909 5910 5910 5911 5911 5912 5912 5912 5914
5917 5918 5920 5921 5923 5924 5925 5925 5926 5927 5926 5927 5927 5927 5925 5924 5923 5922 5921 5919 5918 5917 5917 5916 5915 5915 5915 5915 5915 5915 5914 5914 5913 5912 5913 5913 5914 5914 5914 5914 5914 5914 5915
5916 5919 5920 5922 5925 5925 5927 5927 5928 5929 5929 5928 5928 5928 5927 5926 5925 5924 5923 5922 5921 5919 5919 5918 5918 5917 5917 5917 5918 5917 5916 5916 5916 5916 5916 5916 5916 5916 5917 5916 5916 5917 5917
5915 5918 5920 5922 5925 5927 5927 5930 5930 5931 5931 5930 5930 5930 5929 5928 5927 5926 5926 5924 5923 5922 5921 5920 5920 5920 5920 5919 5919 5919 5918 5919 5919 5920 5920 5919 5919 5919 5919 5919 5919 5920 5919
5915 5918 5921 5921 5926 5927 5929 5930 5931 5932 5933 5932 5931 5931 5930 5930 5930 5929 5928 5927 5926 5925 5924 5923 5922 5921 5921 5922 5921 5921 5921 5921 5922 5922 5921 5922 5922 5922 5922 5921 5921 5921 5921
5915 5917 5918 5923 5925 5928 5930 5931 5932 5932 5934 5933 5933 5932 5932 5932 5932 5932 5931 5929 5928 5928 5926 5926 5925 5923 5923 5924 5923 5923 5924 5924 5924 5920 5918 5923 5923 5924 5923 5923 5922 5923 5924
5915 5919 5923 5923 5926 5929 5931 5933 5933 5933 5934 5935 5934 5934 5935 5933 5933 5932 5931 5930 5930 5929 5929 5928 5927 5927 5925 5925 5925 5924 5924 5925 5926 5924 5922 5925 5925 5926 5926 5925 5924 5924 5925
5916 5919 5923 5924 5927 5929 5932 5934 5935 5935 5935 5936 5936 5936 5936 5935 5934 5933 5932 5929 5930 5929 5928 5929 5928 5929 5928 5926 5926 5926 5926 5926 5927 5928 5927 5928 5927 5927 5927 5926 5925 5925 5926
5916 5919 5923 5927 5928 5932 5934 5934 5936 5936 5936 5938 5938 5938 5937 5935 5935 5933 5931 5928 5925 5925 5926 5928 5928 5930 5929 5928 5928 5927 5927 5927 5928 5929 5929 5929 5929 5928 5928 5928 5927 5927 5926
5916 5921 5925 5927 5930 5933 5934 5934 5937 5937 5938 5940 5939 5939 5937 5936 5935 5933 5928 5927 5925 5924 5924 5927 5930 5930 5930 5930 5929 5929 5929 5929 5928 5929 5930 5929 5930 5929 5930 5929 5929 5929 5928
5918 5922 5926 5929 5933 5934 5936 5937 5938 5939 5940 5940 5940 5940 5938 5937 5938 5931 5930 5927 5925 5925 5924 5927 5930 5931 5930 5931 5930 5930 5930 5930 5929 5929 5930 5930 5930 5931 5931 5931 5930 5931 5930
5920 5924 5928 5932 5933 5936 5938 5939 5939 5941 5942 5941 5941 5941 5939 5938 5937 5934 5929 5927 5926 5926 5927 5930 5932 5931 5931 5931 5931 5931 5930 5930 5930 5930 5930 5930 5930 5932 5932 5932 5932 5932 5932
5924 5927 5930 5933 5936 5937 5939 5940 5940 5942 5942 5942 5943 5942 5940 5940 5937 5935 5931 5928 5929 5929 5930 5932 5933 5933 5933 5933 5933 5932 5932 5932 5931 5930 5930 5930 5931 5932 5933 5933 5933 5933 5933
5926 5930 5932 5934 5937 5939 5940 5941 5941 5943 5943 5943 5944 5942 5941 5941 5939 5938 5933 5929 5929 5932 5933 5934 5934 5934 5935 5935 5935 5933 5933 5933 5933 5933 5932 5932 5932 5934 5933 5933 5931 5932 5933
5929 5932 5934 5937 5939 5940 5941 5941 5943 5944 5945 5945 5945 5944 5943 5943 5942 5940 5937 5936 5936 5936 5936 5937 5937 5937 5937 5937 5937 5936 5935 5935 5935 5935 5935 5934 5934 5933 5932 5932 5929 5932 5932
5935 5936 5938 5939 5940 5941 5942 5943 5944 5946 5947 5946 5946 5945 5945 5944 5943 5942 5940 5939 5939 5939 5939 5938 5938 5938 5938 5939 5939 5939 5938 5937 5937 5936 5935 5935 5935 5935 5934 5929 5930 5931 5931
5936 5938 5938 5940 5942 5943 5945 5945 5946 5947 5948 5947 5946 5945 5945 5945 5945 5944 5942 5942 5941 5941 5941 5942 5941 5941 5941 5941 5941 5941 5940 5939 5938 5937 5935 5935 5934 5934 5933 5932 5932 5932 5931
5936 5938 5939 5941 5943 5945 5946 5948 5949 5949 5949 5948 5948 5946 5946 5946 5946 5945 5944 5943 5943 5943 5943 5944 5943 5943 5943 5943 5942 5941 5941 5940 5938 5937 5935 5934 5934 5933 5932 5932 5932 5932 5932
5938 5940 5942 5943 5944 5945 5947 5949 5950 5951 5949 5949 5949 5948 5947 5947 5946 5946 5946 5945 5944 5943 5943 5943 5944 5944 5944 5943 5943 5942 5942 5940 5939 5936 5934 5932 5932 5931 5931 5932 5932 5932 5933
5941 5943 5943 5944 5945 5946 5947 5948 5949 5950 5950 5949 5949 5949 5949 5948 5947 5947 5947 5946 5945 5944 5944 5943 5943 5943 5944 5945 5945 5945 5943 5941 5939 5937 5935 5933 5932 5931 5931 5930 5930 5930 5931
5941 5942 5944 5945 5946 5946 5947 5948 5948 5950 5950 5950 5949 5950 5950 5949 5949 5947 5947 5947 5946 5945 5944 5944 5944 5944 5944 5945 5946 5946 5944 5943 5940 5938 5935 5933 5932 5931 5929 5929 5929 5928 5928
5941 5942 5943 5944 5946 5946 5946 5947 5948 5949 5949 5950 5949 5950 5950 5950 5949 5948 5948 5948 5947 5945 5945 5945 5945 5945 5946 5946 5947 5945 5944 5943 5944 5915 5934 5936 5934 5933 5930 5927 5926 5927 5926
5941 5943 5943 5944 5945 5946 5946 5947 5947 5948 5948 5949 5949 5950 5950 5950 5950 5950 5950 5950 5949 5947 5946 5945 5946 5945 5945 5946 5946 5945 5944 5943 5942 5938 5938 5937 5934 5933 5929 5927 5927 5926 5924
5940 5941 5942 5943 5943 5944 5945 5946 5947 5948 5948 5949 5949 5949 5949 5950 5950 5949 5950 5950 5949 5948 5947 5946 5946 5945 5945 5945 5945 5944 5943 5942 5941 5939 5938 5937 5936 5924 5928 5926 5926 5926 5923